STARLINK-4444 (53507 NORAD) Tracking and Keplerian Element Data

This shows tracking and keplerian element data for the satellite.

Feedback or suggestion? Click here.




ElementValue
Catalog53507
NameSTARLINK-4444
Epoch Orbit1552
Epoch Day325.25636106
Epoch Year2022
RAAN84.3196
Inclination97.6562
Eccentricity0.0001991
Argument of Perigee28.0677
Mean Anonmoly332.0654
Mean Motion15.01262687
Decay Rate5.1E-06
L11 53507U 22099AU 22325.25636106 .00000510 00000+0 44294-4 0 9997
L22 53507 97.6562 84.3196 0001991 28.0677 332.0654 15.01262687 15522



Live tracking and technical data element details for STARLINK-4444 (NORAD 53507). STARLINK-4444 can be tracked NOW for your location showing map with azimuth and elevation plus other details from your city location.







IsCatalogInMostPopularTable: catalog: 53507, numindb: 4
Update: records affected: 1



GetName: 53507 STARLINK-4444

Hit Count: updated at: Thu, 08 Dec 2022 10:26:32 GMT